Regional Weather Roundup
Issued by NWS

Home | Current Version | Previous Version | Graphics & Text | Print | Product List | Glossary On
Versions: 1 2 3 4 5 6 7 8 9 10 11 12 13 14 15 16 17 18 19 20 21 22 23 24 25 26 27 28 29 30 31 32 33 34 35 36 37 38 39 40 41 42 43 44 45 46 47 48 49 50
000
ASUS45 KSLC 280410
RWRUT

UTAH REGIONAL WEATHER ROUNDUP
NATIONAL WEATHER SERVICE SALT LAKE CITY UT
1000 PM MDT FRI MAR 27 2015

UTZ001>011-023>025-280500-

NORTHERN UTAH

CITY           SKY/WX    TMP DP  RH WIND       PRES   REMARKS
BRIGHAM CITY   CLEAR     55  38  52 CALM      30.16S
HILL AFB       CLEAR     57  28  32 E9        30.16S
LOGAN          CLEAR     53  36  52 S7        30.16R
OGDEN          CLEAR     54  31  41 S8        30.14S
PROVO AIRPORT  CLEAR     54  36  50 SE5       30.17S
SALT LAKE CITY CLEAR     59  33  37 SE9       30.14S
VERNAL         CLEAR     55  28  35 W7        30.17S
WENDOVER       CLEAR     55  25  30 CALM      30.13F
HEBER CITY     CLEAR     45  28  53 W3        30.22R
WEST JORDAN    CLEAR     55  36  47 SW8       30.17S

$$

UTZ012>022-026-027-280500-

SOUTHERN/CENTRAL UTAH

CITY           SKY/WX    TMP DP  RH WIND       PRES   REMARKS
BLANDING       CLEAR     50  22  33 N12       30.29S
BRYCE CANYON   CLEAR     47  26  44 VRB3      30.34R
CEDAR CITY     CLEAR     55  25  31 S8        30.22R
DELTA          CLEAR     55  25  31 SE9       30.17S
HANKSVILLE     CLEAR     54  21  28 E5        30.17R
MILFORD        CLEAR     53  26  35 W12       30.17S
MOAB/CYNLANDS  CLEAR     54  21  27 CALM      30.14R
PRICE          CLEAR     53  22  29 NE10      30.21R
ST GEORGE      CLEAR     70  25  18 E5        30.11S
KANAB          CLEAR     55  25  30 E5        30.23R

$$

REGIONAL REPORTS     COLORADO/ARIZONA

CITY           SKY/WX    TMP DP  RH WIND       PRES   REMARKS
CRAIG, CO      PTCLDY    47  31  53 CALM      30.21R
GRAND JUNCTION CLEAR     54  25  32 SW5       30.17R
RIFLE          CLEAR     50  26  39 E3        30.20R
MONTROSE       CLEAR     51  25  36 SE13      30.25R
CORTEZ         CLEAR     44  23  43 NE8       30.25R
PAGE, AZ       CLEAR     63  25  23 W3        30.14R
GRAND CANYON   CLEAR     37  21  52 CALM      30.31R
KINGMAN        CLEAR     57  24  28 CALM      30.14R
FLAGSTAFF      CLEAR     45  20  36 CALM      30.34R

$$

REGIONAL REPORTS    NEVADA/IDAHO/WYOMING

CITY           SKY/WX    TMP DP  RH WIND       PRES   REMARKS
LAS VEGAS, NV  CLEAR     78  22  12 VRB3      30.01R
ELY            CLEAR     56  18  22 S13       30.22R
ELKO           CLEAR     51  29  42 CALM      30.12R
POCATELLO, ID  CLEAR     59  30  33 S15       30.10F
BURLEY         CLEAR     49  38  65 S5        30.07S
EVANSTON, WY   PTCLDY    47  26  44 S6        30.27R
ROCK SPRINGS   CLEAR     50  25  37 NW5       30.23R
KEMMERER       CLEAR     45  30  57 W6        30.28S

$$


USA.gov is the U.S. government's official web portal to all federal, state and local government web resources and services.